EHI
0 0 0 0 0 0 0 0 0 0 0 0 0 0 0 0 0 0 0 0 0 0 1 5 15 22 20 19 22 26 28 30 30 26 18 10 4 2 1 0 0 0 0 1 0 0 0 0 0
0 0 0 0 0 0 0 0 0 0 0 0 0 0 0 0 0 0 0 0 0 0 0 4 11 16 17 17 19 23 27 29 28 25 19 10 4 2 1 0 0 0 1 2 1 0 0 0 0
0 0 0 0 0 0 0 0 0 0 0 0 0 0 0 0 0 0 0 0 0 0 0 2 6 10 12 13 15 17 21 23 23 22 19 11 4 1 1 0 0 1 2 2 1 0 0 0 0
0 0 0 0 0 0 0 0 0 0 0 0 0 0 0 0 0 0 0 1 1 1 0 1 3 6 8 11 11 12 14 16 17 18 16 10 5 2 1 0 0 1 1 1 1 0 0 0 0
0 0 0 0 0 0 0 0 0 0 0 0 0 0 0 0 0 0 0 1 1 1 0 1 2 3 5 7 9 10 10 12 13 13 11 10 8 5 3 1 0 0 0 0 0 0 0 0 0
0 0 0 0 0 0 0 0 0 0 0 0 0 0 0 0 0 0 0 0 1 1 1 2 2 2 2 4 6 7 8 9 9 8 7 8 9 8 5 1 0 0 0 0 0 0 0 0 0
0 0 0 0 0 0 0 0 0 0 0 0 0 0 0 0 0 0 0 0 1 2 3 2 1 0 1 1 2 3 4 4 4 4 4 5 6 7 4 1 0 0 0 0 0 0 0 0 0
0 0 0 0 0 0 0 0 0 0 0 0 0 0 0 0 0 0 0 0 1 3 3 1 0 0 0 0 0 1 1 1 1 1 1 1 2 2 1 0 0 0 0 0 0 0 0 0 0
0 0 0 0 0 0 0 0 0 0 0 0 0 0 0 0 0 0 0 0 0 1 1 0 0 0 0 0 0 0 0 0 0 0 0 0 0 0 0 0 0 0 0 0 0 0 0 0 0
0 0 0 0 0 0 0 0 0 0 0 0 0 0 0 0 0 0 0 0 0 0 0 0 0 0 0 0 0 0 0 0 0 0 0 0 0 0 0 0 0 0 0 0 0 0 0 0 0
0 0 0 0 0 0 0 0 0 0 0 0 0 0 0 0 0 0 0 0 0 0 0 0 0 1 0 0 0 0 1 1 0 0 0 0 0 0 0 0 0 0 0 0 0 0 0 0 0
0 0 0 0 0 0 0 0 0 0 0 0 0 0 0 0 0 0 0 0 0 0 0 0 0 0 0 0 0 0 1 1 0 0 0 0 0 0 0 0 0 0 0 0 0 0 0 0 0
0 0 0 0 0 0 0 0 0 0 0 0 0 0 0 0 0 0 0 0 0 0 0 0 0 0 0 0 0 0 0 0 0 0 0 0 0 0 0 0 0 0 0 0 0 0 0 0 0
0 0 0 0 0 0 0 0 0 0 0 0 0 0 0 0 0 0 0 0 0 0 0 0 0 0 0 0 0 0 0 0 0 0 0 0 0 0 0 0 0 0 0 0 0 0 0 0 0
0 0 0 0 0 0 0 0 0 0 0 0 0 0 0 0 0 0 0 0 0 0 0 0 0 0 0 0 0 0 0 0 0 0 0 0 0 0 0 0 0 0 0 0 0 0 0 0 0
0 0 0 0 0 0 0 0 0 0 0 0 0 0 0 0 0 0 0 0 0 0 0 0 0 0 0 0 0 0 0 0 0 0 0 0 0 0 0 0 0 0 0 0 0 0 0 0 0
0 0 0 0 0 0 0 0 0 0 0 0 0 0 0 0 0 0 0 0 0 0 0 0 0 0 0 0 0 0 0 0 0 0 0 0 0 0 0 0 0 0 0 0 0 0 0 0 0
0 0 0 0 0 0 0 0 0 0 0 0 0 0 0 0 0 0 0 0 0 0 0 0 0 0 0 0 0 0 0 0 0 0 0 0 0 0 0 0 0 0 0 0 0 0 0 0 0
0 0 0 0 0 0 0 0 0 0 0 0 0 0 0 0 0 0 0 0 0 0 0 0 0 0 0 0 0 0 0 0 0 0 0 0 0 0 0 0 0 0 0 0 0 0 0 0 0
0 0 0 0 0 0 0 0 0 0 0 0 0 0 0 0 0 0 0 0 0 0 0 0 0 0 0 0 0 0 0 0 0 0 0 0 0 0 0 0 0 0 0 0 0 0 0 0 0
0 0 0 0 0 0 0 0 0 0 0 0 0 0 0 0 0 0 0 0 0 0 0 0 0 0 0 0 0 0 0 0 0 0 0 0 0 0 0 0 0 0 0 0 0 0 0 0 0
0 0 0 0 0 0 0 0 0 0 0 0 0 0 0 0 0 0 0 0 0 0 0 0 0 0 0 0 0 0 0 0 0 0 0 0 0 0 0 0 0 0 0 0 0 0 0 0 0
0 0 0 0 0 0 0 0 0 0 0 0 0 0 0 0 0 0 0 0 0 0 0 0 0 0 0 0 0 0 0 0 0 0 0 0 0 0 0 0 0 0 0 0 0 0 0 0 0
0 0 0 0 0 0 0 0 0 0 0 0 0 0 0 0 0 0 0 0 0 0 0 0 0 0 0 0 0 0 0 0 0 0 0 0 0 0 0 0 0 0 0 0 0 0 0 0 0
0 0 0 0 0 0 0 0 0 0 0 0 0 0 0 0 0 0 0 0 0 0 0 0 0 0 0 0 0 0 0 0 0 0 0 0 0 0 0 0 0 0 0 0 0 0 0 0 0
0 0 0 0 0 0 0 0 0 0 0 0 0 0 0 0 0 0 0 0 0 0 0 0 0 0 0 0 0 0 0 0 0 0 0 0 0 0 0 0 0 0 0 0 0 0 0 0 0
0 0 0 0 0 0 0 0 0 0 0 0 0 0 0 0 0 0 0 0 0 0 0 0 0 0 0 0 0 0 0 0 0 0 0 0 0 0 0 0 0 0 0 0 0 0 0 0 0
0 0 0 0 0 0 0 0 0 0 0 0 0 0 0 0 0 0 0 0 0 0 0 0 0 0 0 0 0 0 0 0 0 0 0 0 0 0 0 0 0 0 0 0 0 0 0 0 0
0 0 0 0 0 0 0 0 0 0 0 0 0 0 0 0 0 0 0 0 0 0 0 0 0 0 0 0 0 0 0 0 0 0 0 0 0 0 0 0 0 0 0 0 0 0 0 0 0
0 0 0 0 0 0 0 0 0 0 0 0 0 0 0 0 0 0 0 0 0 0 0 0 0 0 0 0 0 0 0 0 0 0 0 0 0 0 0 0 0 0 0 0 0 0 0 0 0
Wind_Speed
2 1 2 4 5 6 7 5 3 4 4 1 1 4 4 3 2 3 6 9 9 4 3 10 11 11 11 11 11 11 11 11 12 13 14 14 13 13 12 12 12 12 13 13 13 13 13 13 12
1 1 4 4 6 7 5 5 7 4 2 1 3 4 4 2 3 5 6 10 9 4 3 8 10 11 11 11 11 11 11 11 11 12 13 13 13 13 13 12 12 12 13 13 13 13 13 12 12
2 1 4 5 6 6 3 3 3 2 0 1 1 1 2 2 4 6 9 11 7 3 2 5 8 10 11 11 11 11 11 11 11 11 12 13 13 13 13 13 12 11 11 12 13 13 12 12 12
3 4 3 6 8 3 1 4 2 3 3 1 2 2 1 3 5 7 11 10 7 3 1 3 5 8 10 11 11 11 12 12 12 11 11 12 13 13 13 12 11 10 11 12 13 13 12 12 11
2 4 6 6 6 3 2 0 1 2 2 1 3 2 1 2 6 9 10 9 7 5 2 1 2 6 9 10 11 11 11 12 12 12 12 13 13 13 13 11 11 12 12 13 13 14 13 12 11
4 4 6 7 7 3 3 2 3 4 2 1 3 4 1 3 8 11 11 9 8 6 4 2 1 3 6 8 10 11 11 12 12 12 12 13 13 13 13 12 12 13 14 14 14 14 13 12 11
4 4 4 4 5 4 2 1 4 3 4 2 3 4 2 2 8 10 10 9 8 6 5 3 3 4 6 7 9 10 10 11 11 11 11 11 11 12 13 13 13 14 14 14 14 14 13 12 11
1 3 4 4 5 3 2 1 1 4 4 2 3 5 2 6 10 10 9 9 8 6 5 5 4 4 5 7 8 9 10 10 11 10 10 10 11 12 12 13 13 13 14 14 14 14 13 12 11
3 4 5 4 3 2 2 1 1 3 4 3 3 5 7 10 11 11 9 9 8 8 7 5 5 5 5 6 6 8 9 9 10 10 10 10 11 12 11 14 12 13 13 14 14 14 13 10 9
4 5 2 1 1 1 0 2 3 3 5 6 6 6 8 10 11 11 11 10 10 10 9 7 6 6 5 5 5 6 7 8 9 9 11 10 9 9 9 11 12 13 13 13 14 13 12 10 8
3 3 3 2 1 1 2 3 3 5 6 6 9 11 11 12 11 11 11 11 10 10 9 8 7 7 6 4 5 4 4 5 8 10 10 9 8 7 7 6 8 11 12 11 11 12 10 10 8
4 3 2 2 0 2 3 4 4 7 8 9 11 12 12 13 12 12 12 12 11 11 10 9 8 7 7 6 5 5 5 5 5 8 10 8 6 7 7 6 8 9 8 9 9 8 11 11 10
4 3 2 2 3 4 5 6 7 8 10 10 10 11 12 12 12 12 11 11 11 11 10 10 8 8 7 6 5 6 6 6 6 6 8 9 7 8 8 7 7 9 8 9 9 10 11 11 10
3 3 2 2 2 2 5 6 5 6 8 9 9 10 10 11 11 11 11 11 11 10 10 9 9 9 8 7 7 6 6 6 6 6 8 10 8 8 8 8 8 8 8 8 9 10 9 9 8
3 2 2 1 1 1 4 5 4 5 8 9 9 9 10 10 10 11 11 11 11 11 10 10 9 8 9 9 8 7 6 6 6 6 8 9 9 9 8 8 8 8 8 9 9 10 9 8 8
3 3 3 2 1 1 4 5 2 5 8 9 9 9 9 9 9 10 10 10 10 10 10 10 8 8 8 8 7 6 6 7 6 6 7 10 10 10 8 7 7 8 7 7 8 8 8 9 9
3 2 1 1 1 1 3 5 5 7 8 8 8 9 9 9 10 10 9 9 9 10 10 9 8 8 8 8 6 6 6 6 6 6 6 8 10 10 9 8 8 9 7 7 8 8 8 9 9
4 2 2 1 1 3 5 7 8 7 6 7 8 9 9 10 11 11 10 9 9 9 9 8 8 7 7 6 5 5 6 6 6 6 7 8 8 10 9 8 9 9 8 8 9 10 9 8 8
3 2 1 1 2 4 5 7 7 6 5 7 8 9 10 11 12 11 11 10 9 8 8 8 7 7 5 4 5 5 6 5 5 6 7 8 7 8 9 8 9 9 9 10 11 9 10 9 7
3 2 1 1 1 4 5 7 4 3 4 7 9 10 10 12 12 12 12 10 10 9 8 7 7 6 6 5 5 5 5 4 4 4 6 7 8 8 7 9 8 9 8 10 11 10 8 7 8
2 2 1 2 5 3 5 3 2 2 3 6 8 9 10 11 12 12 12 11 10 9 8 7 7 6 5 5 4 3 3 3 4 4 5 6 7 8 8 9 8 8 8 8 10 11 12 9 9
1 1 2 3 4 1 3 3 1 2 3 7 10 10 11 12 12 11 12 12 11 10 9 8 6 5 4 3 3 4 3 4 5 4 4 5 6 7 7 8 9 8 8 9 9 10 9 9 9
0 1 2 3 3 3 2 3 1 2 4 8 9 10 11 11 11 11 12 11 11 10 9 8 7 6 5 3 2 3 3 4 3 3 4 5 5 5 5 6 6 7 7 8 9 9 9 8 8
1 1 2 2 3 3 2 3 2 1 5 7 8 9 10 10 10 11 11 11 10 10 9 8 8 8 6 3 2 2 3 3 2 3 3 3 3 3 5 6 6 6 6 7 7 8 10 9 9
2 2 2 3 3 1 2 4 2 2 3 4 6 7 8 9 10 11 12 11 11 11 10 9 9 8 7 5 3 3 2 2 3 3 3 3 3 3 4 4 5 5 6 6 7 7 8 10 10
1 2 2 2 1 0 2 4 0 1 2 2 4 5 6 8 8 9 10 10 10 10 10 10 9 9 8 6 5 4 3 2 2 3 3 3 3 4 4 5 5 5 5 5 6 6 8 8 9
2 1 2 2 2 3 2 2 2 1 1 2 3 5 6 7 7 8 9 9 9 10 10 10 9 9 9 8 6 5 5 4 4 4 4 3 4 4 5 4 4 4 4 4 5 5 7 7 8
1 0 2 2 3 3 2 3 2 2 2 2 3 4 5 6 6 7 7 8 8 8 9 9 9 9 10 9 8 6 7 6 5 5 5 5 5 5 5 4 4 4 4 4 4 4 5 7 7
3 3 3 2 3 4 3 0 1 2 2 2 2 3 3 4 5 6 6 6 7 8 8 9 9 9 9 9 9 9 8 8 7 6 6 6 6 6 5 5 5 5 5 4 4 5 5 7 7
2 2 3 3 2 3 4 2 3 2 1 2 2 2 2 3 4 5 5 6 7 8 8 8 8 9 9 9 8 8 8 8 7 7 7 7 7 6 6 6 5 5 5 5 5 6 6 7 8
Wind_Direction
346 304 216 193 197 218 223 196 195 168 177 181 277 262 256 256 287 31 25 1 341 317 211 177 179 173 171 169 165 163 164 165 165 167 167 167 167 168 167 165 162 159 157 154 148 143 138 132 126
356 210 189 198 223 217 203 191 193 170 85 316 246 241 236 233 0 357 3 347 333 321 214 187 173 176 174 174 171 171 171 172 172 173 172 173 173 173 172 171 166 161 159 154 147 142 138 135 132
138 231 193 195 220 234 161 146 178 162 247 270 219 230 278 347 357 352 352 335 333 337 226 182 174 181 179 178 177 177 179 179 181 180 178 178 178 179 177 175 170 163 159 154 147 143 142 141 140
183 167 194 221 215 219 75 105 123 185 175 206 262 205 134 36 353 343 339 340 342 350 289 183 184 188 186 184 184 186 186 186 188 186 184 183 183 184 182 179 171 163 159 155 152 149 149 147 147
192 187 193 211 215 192 204 200 251 216 192 202 274 256 180 58 3 351 347 349 347 345 327 216 188 202 196 194 194 194 193 192 193 193 192 190 189 188 184 178 171 166 163 161 159 157 156 154 155
169 200 208 210 197 191 204 229 243 244 236 264 281 263 196 63 8 354 350 349 346 337 325 301 192 217 208 204 204 202 202 201 200 199 197 196 193 191 187 179 173 172 171 169 167 164 162 162 162
196 202 216 206 192 190 170 219 241 257 250 288 302 261 203 48 2 346 345 345 345 338 324 308 268 228 212 211 210 211 209 208 208 206 202 201 196 194 188 181 178 177 176 174 172 170 168 168 168
224 200 192 198 200 175 126 173 311 285 283 330 282 261 271 347 341 336 338 340 339 335 328 315 296 272 246 224 213 216 216 214 213 211 208 207 201 197 191 186 183 180 179 177 176 175 172 172 171
209 216 205 190 194 147 126 212 330 299 272 272 267 284 311 321 324 328 330 331 332 332 329 316 304 290 271 252 221 215 218 219 217 214 209 210 212 206 196 196 184 182 181 180 180 179 175 170 170
199 218 192 141 153 126 135 302 319 279 266 266 267 281 302 312 319 321 320 319 319 319 322 318 306 292 280 263 240 227 224 218 220 222 214 215 217 213 208 189 183 185 181 182 183 179 174 183 183
181 203 144 153 149 295 285 298 293 276 274 287 298 305 311 310 308 308 306 304 304 306 306 308 305 293 279 267 254 239 230 225 224 225 220 218 217 213 209 193 186 191 187 190 185 185 193 199 196
153 147 166 164 113 274 284 289 283 263 277 304 303 302 302 301 301 300 300 300 300 297 296 298 298 290 280 270 259 248 239 231 228 225 223 218 214 213 208 202 197 197 195 196 194 200 198 202 201
155 147 163 244 266 273 271 266 277 274 288 295 296 294 295 296 296 295 295 293 292 290 290 291 290 285 276 268 260 251 246 241 236 230 224 218 214 213 212 208 204 203 199 196 199 204 201 202 204
146 164 216 271 261 258 271 271 267 283 307 307 304 301 301 300 299 298 297 294 291 289 289 289 284 281 272 262 256 254 248 242 242 234 227 222 218 213 210 211 209 209 205 201 202 204 203 204 204
151 171 163 138 244 261 278 262 244 305 316 311 311 311 310 308 305 300 300 296 293 291 291 288 284 279 271 263 257 252 245 241 238 234 233 227 221 216 211 210 209 209 208 206 206 206 206 206 205
166 189 171 97 350 286 273 275 5 339 323 318 321 322 319 318 314 309 305 299 296 291 289 288 285 278 272 265 260 256 248 241 239 237 235 232 226 221 217 213 210 207 205 205 206 205 203 205 207
156 171 175 119 62 305 269 282 326 332 324 323 328 328 327 326 327 324 316 307 302 294 288 285 282 276 271 266 260 256 252 245 243 241 237 233 229 223 220 218 212 205 203 204 205 206 206 208 210
149 153 194 242 26 301 275 284 310 327 329 329 333 334 333 332 332 331 325 316 308 301 292 285 281 275 270 263 259 254 249 245 243 243 238 236 232 227 223 221 217 206 204 206 207 207 206 212 208
130 160 223 277 312 296 287 296 314 333 345 345 343 339 337 335 336 337 334 328 319 311 302 290 282 274 263 255 249 245 244 243 241 241 239 236 235 231 226 224 218 212 209 210 208 207 208 210 202
156 180 241 278 300 289 295 296 312 353 2 358 351 346 343 340 341 342 340 337 330 322 315 304 291 277 260 250 248 251 253 249 246 249 246 240 237 230 226 224 221 216 213 213 211 207 208 204 196
185 215 264 312 319 259 284 250 151 58 16 11 5 357 352 348 344 345 344 341 338 334 328 320 308 291 275 260 247 248 248 252 248 246 247 244 240 236 231 231 226 220 216 214 210 208 209 206 203
182 199 258 285 293 302 314 274 168 345 353 8 4 359 354 351 349 348 348 346 345 343 340 336 329 320 308 284 255 239 238 242 249 252 251 253 251 247 242 238 232 226 222 219 214 209 211 212 210
296 314 264 266 270 271 232 260 235 346 335 352 356 355 354 354 354 352 351 348 349 350 349 347 346 347 341 326 292 258 256 257 266 267 261 259 258 255 254 249 243 235 230 227 222 216 213 213 216
232 232 204 210 236 242 211 249 270 355 328 333 346 351 353 356 356 355 354 355 358 359 358 357 358 357 352 350 329 290 276 279 280 287 287 275 272 270 269 261 251 245 239 233 228 223 221 219 219
222 251 216 202 213 219 137 246 274 348 334 331 337 344 352 357 358 359 0 1 2 1 0 2 6 2 0 359 349 323 299 285 273 272 269 270 279 288 289 279 263 254 251 243 235 228 225 223 222
199 286 313 302 306 349 197 247 298 50 3 357 344 341 349 357 360 1 2 2 3 2 2 5 9 7 5 4 3 3 347 319 296 289 286 286 289 287 291 285 278 270 261 254 246 237 232 229 228
195 204 335 294 282 264 232 238 206 168 292 331 336 342 355 357 357 359 0 3 5 4 6 6 9 10 9 10 11 12 10 6 349 331 314 307 305 301 297 289 286 287 284 273 258 250 245 238 234
270 214 211 244 274 274 248 237 239 217 259 287 319 339 351 354 356 358 359 360 2 5 4 9 13 14 13 13 13 10 9 7 358 352 348 338 328 319 309 300 295 293 286 284 273 267 263 254 245
176 194 221 238 281 287 287 222 113 221 255 278 304 325 339 343 349 353 355 358 359 4 9 12 12 14 14 13 11 11 9 6 3 358 356 353 347 342 334 321 308 301 297 292 283 273 268 262 258
240 234 222 256 233 253 279 282 107 214 254 265 276 289 310 322 335 342 351 359 5 7 9 11 11 13 10 8 8 8 7 8 7 2 357 352 347 343 341 336 328 316 306 298 289 284 277 269 264